Regional Weather Roundup
Issued by NWS Northern Indiana

Home | Current Version | Previous Version | Graphics & Text | Print | Product List | Glossary On
Versions: 1 2 3 4 5 6 7 8 9 10 11 12 13 14 15 16 17 18 19 20 21 22 23 24 25 26 27 28 29 30 31 32 33 34 35 36 37 38 39 40 41 42 43 44 45 46 47 48 49 50
408
ASUS43 KIWX 232310
RWRIWX

KIWX WEATHER ROUNDUP
NATIONAL WEATHER SERVICE NORTHERN INDIANA
600 PM EST THU FEB 23 2017

NOTE: "FAIR" INDICATES FEW OR NO CLOUDS BELOW 12,000 FEET WITH NO
SIGNIFICANT WEATHER AND/OR OBSTRUCTIONS TO VISIBILITY.

* THESE STATIONS ARE NOT UNDER NWS QUALITY CONTROL. THEY ALSO MAY NOT
  REPORT WEATHER SUCH AS PRECIPITATION OR FOG.

INZ001>027-240000-
NORTHERN INDIANA

CITY           SKY/WX    TMP DP  RH WIND       PRES   REMARKS
GARY*          LGT RAIN  39  36  87 N9        29.83R
VALPARAISO     LGT RAIN  40  37  89 N12       29.77F FOG
MICHIGAN CITY* CLOUDY    37  37 100 N5        29.82R
LAPORTE*       MOCLDY    39  36  87 N8        29.80R
KNOX*          CLOUDY    45  25  45 N10       29.77R
SOUTH BEND     FAIR      43  38  82 N6        29.80R
ELKHART*       PTCLDY    48  41  76 N5        29.78R
GOSHEN         FAIR      52  42  69 NE7       29.76S
MONTICELLO*    FAIR      55  46  71 NE7       29.73R
LOGANSPORT*    FAIR      57  50  77 CALM      29.74R
ROCHESTER*     FAIR      54  45  71 N7        29.75R
WARSAW*        FAIR      54  45  71 NE5       29.76R
ANGOLA*        CLEAR     54  46  76 CALM      29.76S
FORT WAYNE     CLOUDY    60  52  74 CALM      29.74F
HUNTINGTON*    FAIR      59  54  82 CALM      29.73F
PERU/GRISSOM   FAIR      59  57  92 SE3       29.72R
MARION*        FAIR      59  54  83 E5        29.74S

$$
INZ028>050-240000-
CENTRAL INDIANA

CITY           SKY/WX    TMP DP  RH WIND       PRES   REMARKS
LAFAYETTE      FAIR      58  50  75 NE8       29.71S
KOKOMO*        FAIR      59  54  83 SE7       29.74R
MUNCIE*        FAIR      61  54  77 E6        29.74F
INDIANAPOLIS   CLOUDY    68  53  58 S10       29.71S

$$
MIZ043>046-050>051-056>058-064>065-071>073-077>080-240000-
SOUTHWEST LOWER MICHIGAN

CITY           SKY/WX    TMP DP  RH WIND       PRES   REMARKS
BATTLE CREEK   FAIR      52  42  69 N3        29.79R
BENTON HARBOR  CLOUDY    39  34  82 N6        29.80R
COLDWATER*     FAIR      53  45  74 NE6       29.77S
HILLSDALE*     FAIR      54  43  66 CALM      29.77S
HOLLAND        MOCLDY    45  37  73 CALM      29.80S
GRAND RAPIDS   MOCLDY    49  38  65 NE6       29.79R
KALAMAZOO      FAIR      50  40  68 CALM      29.80R
STURGIS*       FAIR      49  43  78 NE5       29.77R
THREE RIVERS*  FAIR      49  42  74 CALM      29.79R

$$
OHZ001>008-015>018-024>025-240000-
NORTHWEST OHIO

CITY           SKY/WX    TMP DP  RH WIND       PRES   REMARKS
WAUSEON*       FAIR      61  45  55 N5        29.77R
DEFIANCE       FAIR      61  46  57 CALM      29.76S
FINDLAY        FAIR      62  52  69 W3        29.76S
TOLEDO EXPRESS FAIR      62  44  51 NW3       29.77R
TOLEDO METCALF FAIR      62  46  55 CALM      29.78R
LIMA           CLOUDY    61  55  81 N5        29.77R

$$
AND FOR LAKE MICHIGAN COASTAL AND OPEN LAKE BUOY OBSERVATIONS

STATION/POSITION TEMP    WIND        PRES    VSBY  WAVE
                 AIR SEA DIR/SP/G                  HT/PER
                 (F)     (DEG/KT/KT) (MB)    (MI)  (FT/S)
CALUMET HARBOR    37     340/  7/  9 1010.3R
MICHIGAN CITY     36      10/  7/  8   N/A
BURNS HARBOR      37      40/ 10/ 12 1010.2S
SAINT JOSEPH      37      30/  6/ 10 1009.8

$$
&&




USA.gov is the U.S. government's official web portal to all federal, state and local government web resources and services.